Year,Month,Day,Hour,Minute,Value (Times are PST for temperature in C)
2017,05,24,00,00,9.60
2017,05,24,00,01,9.60
2017,05,24,00,02,9.60
2017,05,24,00,03,9.60
2017,05,24,00,04,9.60
2017,05,24,00,05,9.60
2017,05,24,00,06,9.50
2017,05,24,00,07,9.50
2017,05,24,00,08,9.50
2017,05,24,00,09,9.50
2017,05,24,00,10,9.50
2017,05,24,00,11,9.50
2017,05,24,00,12,9.50
2017,05,24,00,13,9.50
2017,05,24,00,14,9.40
2017,05,24,00,15,9.40
2017,05,24,00,16,9.40
2017,05,24,00,17,9.40
2017,05,24,00,18,9.40
2017,05,24,00,19,9.40
2017,05,24,00,20,9.40
2017,05,24,00,21,9.40
2017,05,24,00,22,9.40
2017,05,24,00,23,9.40
2017,05,24,00,24,9.40
2017,05,24,00,25,9.40
2017,05,24,00,26,9.40
2017,05,24,00,27,9.40
2017,05,24,00,28,9.40
2017,05,24,00,29,9.40
2017,05,24,00,30,9.40
2017,05,24,00,31,9.40
2017,05,24,00,32,9.40
2017,05,24,00,33,9.40
2017,05,24,00,34,9.40
2017,05,24,00,35,9.40
2017,05,24,00,36,9.40
2017,05,24,00,37,9.40
2017,05,24,00,38,9.40
2017,05,24,00,39,9.30
2017,05,24,00,40,9.40
2017,05,24,00,41,9.30
2017,05,24,00,42,9.40
2017,05,24,00,43,9.30
2017,05,24,00,44,9.30
2017,05,24,00,45,9.30
2017,05,24,00,46,9.30
2017,05,24,00,47,9.30
2017,05,24,00,48,9.30
2017,05,24,00,49,9.30
2017,05,24,00,50,9.30
2017,05,24,00,51,9.30
2017,05,24,00,52,9.30
2017,05,24,00,53,9.30
2017,05,24,00,54,9.30
2017,05,24,00,55,9.30
2017,05,24,00,56,9.30
2017,05,24,00,57,9.30
2017,05,24,00,58,9.30
2017,05,24,00,59,9.30
2017,05,24,01,00,9.30
2017,05,24,01,01,9.30
2017,05,24,01,02,9.30
2017,05,24,01,03,9.30
2017,05,24,01,04,9.30
2017,05,24,01,05,9.30
2017,05,24,01,06,9.30
2017,05,24,01,07,9.30
2017,05,24,01,08,9.30
2017,05,24,01,09,9.30
2017,05,24,01,10,9.30
2017,05,24,01,11,9.30
2017,05,24,01,12,9.30
2017,05,24,01,13,9.30
2017,05,24,01,14,9.30
2017,05,24,01,15,9.30
2017,05,24,01,16,9.30
2017,05,24,01,17,9.20
2017,05,24,01,18,9.20
2017,05,24,01,19,9.20
2017,05,24,01,20,9.20
2017,05,24,01,21,9.20
2017,05,24,01,22,9.20
2017,05,24,01,23,9.20
2017,05,24,01,24,9.20
2017,05,24,01,25,9.20
2017,05,24,01,26,9.20
2017,05,24,01,27,9.10
2017,05,24,01,28,9.10
2017,05,24,01,29,9.10
2017,05,24,01,30,9.10
2017,05,24,01,31,9.10
2017,05,24,01,32,9.10
2017,05,24,01,33,9.00
2017,05,24,01,34,9.00
2017,05,24,01,35,9.00
2017,05,24,01,36,9.00
2017,05,24,01,37,9.00
2017,05,24,01,38,9.00
2017,05,24,01,39,9.00
2017,05,24,01,40,9.00
2017,05,24,01,41,9.00
2017,05,24,01,42,9.00
2017,05,24,01,43,9.00
2017,05,24,01,44,9.00
2017,05,24,01,45,9.00
2017,05,24,01,46,9.00
2017,05,24,01,47,9.00
2017,05,24,01,48,9.00
2017,05,24,01,49,9.00
2017,05,24,01,50,9.00
2017,05,24,01,51,9.00
2017,05,24,01,52,9.00
2017,05,24,01,53,9.00
2017,05,24,01,54,9.00
2017,05,24,01,55,9.00
2017,05,24,01,56,9.00
2017,05,24,01,57,9.00
2017,05,24,01,58,9.00
2017,05,24,01,59,9.00
2017,05,24,02,00,8.90
2017,05,24,02,01,8.90
2017,05,24,02,02,8.90
2017,05,24,02,03,8.90
2017,05,24,02,04,8.90
2017,05,24,02,05,8.90
2017,05,24,02,06,8.90
2017,05,24,02,07,8.90
2017,05,24,02,08,8.90
2017,05,24,02,09,8.90
2017,05,24,02,10,8.90
2017,05,24,02,11,8.90
2017,05,24,02,12,8.90
2017,05,24,02,13,8.90
2017,05,24,02,14,8.90
2017,05,24,02,15,8.90
2017,05,24,02,16,8.90
2017,05,24,02,17,8.80
2017,05,24,02,18,8.80
2017,05,24,02,19,8.90
2017,05,24,02,20,8.90
2017,05,24,02,21,8.80
2017,05,24,02,22,8.90
2017,05,24,02,23,8.90
2017,05,24,02,24,8.90
2017,05,24,02,25,8.90
2017,05,24,02,26,8.90
2017,05,24,02,27,8.90
2017,05,24,02,28,8.90
2017,05,24,02,29,8.90
2017,05,24,02,30,8.90
2017,05,24,02,31,8.80
2017,05,24,02,32,8.80
2017,05,24,02,33,8.80
2017,05,24,02,34,8.80
2017,05,24,02,35,8.80
2017,05,24,02,36,8.80
2017,05,24,02,37,8.80
2017,05,24,02,38,8.80
2017,05,24,02,39,8.80
2017,05,24,02,40,8.80
2017,05,24,02,41,8.80
2017,05,24,02,42,8.80
2017,05,24,02,43,8.80
2017,05,24,02,44,8.80
2017,05,24,02,45,8.80
2017,05,24,02,46,8.80
2017,05,24,02,47,8.80
2017,05,24,02,48,8.80
2017,05,24,02,49,8.70
2017,05,24,02,50,8.70
2017,05,24,02,51,8.70
2017,05,24,02,52,8.70
2017,05,24,02,53,8.70
2017,05,24,02,54,8.70
2017,05,24,02,55,8.80
2017,05,24,02,56,8.80
2017,05,24,02,57,8.80
2017,05,24,02,58,8.80
2017,05,24,02,59,8.80
2017,05,24,03,00,8.80
2017,05,24,03,01,8.80
2017,05,24,03,02,8.80
2017,05,24,03,03,8.80
2017,05,24,03,04,8.80
2017,05,24,03,05,8.80
2017,05,24,03,06,8.80
2017,05,24,03,07,8.80
2017,05,24,03,08,8.80
2017,05,24,03,09,8.80
2017,05,24,03,10,8.80
2017,05,24,03,11,8.80
2017,05,24,03,12,8.80
2017,05,24,03,13,8.80
2017,05,24,03,14,8.80
2017,05,24,03,15,8.80
2017,05,24,03,16,8.80
2017,05,24,03,17,8.80
2017,05,24,03,18,8.80
2017,05,24,03,19,8.80
2017,05,24,03,20,8.80
2017,05,24,03,21,8.80
2017,05,24,03,22,8.80
2017,05,24,03,23,8.80
2017,05,24,03,24,8.80
2017,05,24,03,25,8.80
2017,05,24,03,26,8.80
2017,05,24,03,27,8.80
2017,05,24,03,28,8.80
2017,05,24,03,29,8.80
2017,05,24,03,30,8.80
2017,05,24,03,31,8.80
2017,05,24,03,32,8.80
2017,05,24,03,33,8.80
2017,05,24,03,34,8.80
2017,05,24,03,35,8.80
2017,05,24,03,36,8.80
2017,05,24,03,37,8.80
2017,05,24,03,38,8.80
2017,05,24,03,39,8.80
2017,05,24,03,40,8.80
2017,05,24,03,41,8.80
2017,05,24,03,42,8.80
2017,05,24,03,43,8.80
2017,05,24,03,44,8.80
2017,05,24,03,45,8.80
2017,05,24,03,46,8.80
2017,05,24,03,47,8.80
2017,05,24,03,48,8.80
2017,05,24,03,49,8.80
2017,05,24,03,50,8.80
2017,05,24,03,51,8.80
2017,05,24,03,52,8.80
2017,05,24,03,53,8.80
2017,05,24,03,54,8.80
2017,05,24,03,55,8.80
2017,05,24,03,56,8.80
2017,05,24,03,57,8.80
2017,05,24,03,58,8.80
2017,05,24,03,59,8.80
2017,05,24,04,00,8.90
2017,05,24,04,01,8.90
2017,05,24,04,02,8.90
2017,05,24,04,03,8.90
2017,05,24,04,04,8.90
2017,05,24,04,05,8.90
2017,05,24,04,06,8.90
2017,05,24,04,07,8.90
2017,05,24,04,08,8.90
2017,05,24,04,09,8.90
2017,05,24,04,10,8.90
2017,05,24,04,11,8.90
2017,05,24,04,12,8.90
2017,05,24,04,13,8.90
2017,05,24,04,14,8.90
2017,05,24,04,15,8.90
2017,05,24,04,16,8.90
2017,05,24,04,17,8.90
2017,05,24,04,18,8.90
2017,05,24,04,19,8.90
2017,05,24,04,20,8.90
2017,05,24,04,21,8.90
2017,05,24,04,22,8.90
2017,05,24,04,23,8.90
2017,05,24,04,24,9.00
2017,05,24,04,25,9.00
2017,05,24,04,26,9.00
2017,05,24,04,27,9.00
2017,05,24,04,28,9.00
2017,05,24,04,29,9.00
2017,05,24,04,30,9.00
2017,05,24,04,31,9.10
2017,05,24,04,32,9.10
2017,05,24,04,33,9.10
2017,05,24,04,34,9.10
2017,05,24,04,35,9.10
2017,05,24,04,36,9.10
2017,05,24,04,37,9.10
2017,05,24,04,38,9.10
2017,05,24,04,39,9.10
2017,05,24,04,40,9.10
2017,05,24,04,41,9.20
2017,05,24,04,42,9.10
2017,05,24,04,43,9.10
2017,05,24,04,44,9.10
2017,05,24,04,45,9.20
2017,05,24,04,46,9.20
2017,05,24,04,47,9.10
2017,05,24,04,48,9.10
2017,05,24,04,49,9.10
2017,05,24,04,50,9.10
2017,05,24,04,51,9.10
2017,05,24,04,52,9.10
2017,05,24,04,53,9.10
2017,05,24,04,54,9.10
2017,05,24,04,55,9.10
2017,05,24,04,56,9.00
2017,05,24,04,57,9.00
2017,05,24,04,58,9.00
2017,05,24,04,59,9.00
2017,05,24,05,00,9.00
2017,05,24,05,01,9.00
2017,05,24,05,02,9.00
2017,05,24,05,03,9.00
2017,05,24,05,04,9.00
2017,05,24,05,05,9.00
2017,05,24,05,06,9.00
2017,05,24,05,07,9.00
2017,05,24,05,08,9.00
2017,05,24,05,09,9.00
2017,05,24,05,10,9.00
2017,05,24,05,11,9.00
2017,05,24,05,12,8.90
2017,05,24,05,13,9.00
2017,05,24,05,14,9.00
2017,05,24,05,15,8.90
2017,05,24,05,16,8.90
2017,05,24,05,17,9.00
2017,05,24,05,18,9.00
2017,05,24,05,19,9.00
2017,05,24,05,20,9.00
2017,05,24,05,21,9.00
2017,05,24,05,22,9.00
2017,05,24,05,23,9.00
2017,05,24,05,24,9.00
2017,05,24,05,25,9.00
2017,05,24,05,26,9.00
2017,05,24,05,27,9.00
2017,05,24,05,28,9.00
2017,05,24,05,29,9.00
2017,05,24,05,30,9.00
2017,05,24,05,31,9.00
2017,05,24,05,32,9.00
2017,05,24,05,33,9.10
2017,05,24,05,34,9.10
2017,05,24,05,35,9.10
2017,05,24,05,36,9.10
2017,05,24,05,37,9.10
2017,05,24,05,38,9.10
2017,05,24,05,39,9.10
2017,05,24,05,40,9.10
2017,05,24,05,41,9.10
2017,05,24,05,42,9.00
2017,05,24,05,43,9.00
2017,05,24,05,44,9.00
2017,05,24,05,45,9.00
2017,05,24,05,46,9.00
2017,05,24,05,47,9.00
2017,05,24,05,48,9.00
2017,05,24,05,49,9.00
2017,05,24,05,50,9.00
2017,05,24,05,51,9.00
2017,05,24,05,52,9.00
2017,05,24,05,53,9.00
2017,05,24,05,54,9.00
2017,05,24,05,55,9.00
2017,05,24,05,56,9.00
2017,05,24,05,57,9.00
2017,05,24,05,58,9.00
2017,05,24,05,59,9.00
2017,05,24,06,00,9.00
2017,05,24,06,01,9.00
2017,05,24,06,02,9.00
2017,05,24,06,03,9.00
2017,05,24,06,04,9.00
2017,05,24,06,05,9.10
2017,05,24,06,06,9.10
2017,05,24,06,07,9.10
2017,05,24,06,08,9.10
2017,05,24,06,09,9.10
2017,05,24,06,10,9.10
2017,05,24,06,11,9.10
2017,05,24,06,12,9.10
2017,05,24,06,13,9.10
2017,05,24,06,14,9.10
2017,05,24,06,15,9.10
2017,05,24,06,16,9.10
2017,05,24,06,17,9.10
2017,05,24,06,18,9.10
2017,05,24,06,19,9.10
2017,05,24,06,20,9.10
2017,05,24,06,21,9.10
2017,05,24,06,22,9.10
2017,05,24,06,23,9.10
2017,05,24,06,24,9.10
2017,05,24,06,25,9.10
2017,05,24,06,26,9.10
2017,05,24,06,27,9.20
2017,05,24,06,28,9.20
2017,05,24,06,29,9.20
2017,05,24,06,30,9.20
2017,05,24,06,31,9.20
2017,05,24,06,32,9.20
2017,05,24,06,33,9.20
2017,05,24,06,34,9.20
2017,05,24,06,35,9.20
2017,05,24,06,36,9.20
2017,05,24,06,37,9.20
2017,05,24,06,38,9.20
2017,05,24,06,39,9.20
2017,05,24,06,40,9.20
2017,05,24,06,41,9.20
2017,05,24,06,42,9.20
2017,05,24,06,43,9.20
2017,05,24,06,44,9.20
2017,05,24,06,45,9.20
2017,05,24,06,46,9.20
2017,05,24,06,47,9.30
2017,05,24,06,48,9.30
2017,05,24,06,49,9.30
2017,05,24,06,50,9.30
2017,05,24,06,51,9.30
2017,05,24,06,52,9.30
2017,05,24,06,53,9.30
2017,05,24,06,54,9.30
2017,05,24,06,55,9.30
2017,05,24,06,56,9.30
2017,05,24,06,57,9.30
2017,05,24,06,58,9.40
2017,05,24,06,59,9.40
2017,05,24,07,00,9.40
2017,05,24,07,01,9.40
2017,05,24,07,02,9.40
2017,05,24,07,03,9.40
2017,05,24,07,04,9.40
2017,05,24,07,05,9.40
2017,05,24,07,06,9.40
2017,05,24,07,07,9.40
2017,05,24,07,08,9.40
2017,05,24,07,09,9.40
2017,05,24,07,10,9.40
2017,05,24,07,11,9.40
2017,05,24,07,12,9.40
2017,05,24,07,13,9.40
2017,05,24,07,14,9.40
2017,05,24,07,15,9.40
2017,05,24,07,16,9.40
2017,05,24,07,17,9.40
2017,05,24,07,18,9.50
2017,05,24,07,19,9.50
2017,05,24,07,20,9.50
2017,05,24,07,21,9.50
2017,05,24,07,22,9.50
2017,05,24,07,23,9.50
2017,05,24,07,24,9.50
2017,05,24,07,25,9.50
2017,05,24,07,26,9.50
2017,05,24,07,27,9.50
2017,05,24,07,28,9.50
2017,05,24,07,29,9.60
2017,05,24,07,30,9.60
2017,05,24,07,31,9.60
2017,05,24,07,32,9.70
2017,05,24,07,33,9.70
2017,05,24,07,34,9.80
2017,05,24,07,35,9.80
2017,05,24,07,36,9.90
2017,05,24,07,37,9.90
2017,05,24,07,38,10.00
2017,05,24,07,39,10.00
2017,05,24,07,40,10.10
2017,05,24,07,41,10.10
2017,05,24,07,42,10.10
2017,05,24,07,43,10.10
2017,05,24,07,44,10.00
2017,05,24,07,45,10.00
2017,05,24,07,46,10.00
2017,05,24,07,47,9.90
2017,05,24,07,48,9.90
2017,05,24,07,49,9.90
2017,05,24,07,50,9.90
2017,05,24,07,51,9.90
2017,05,24,07,52,9.90
2017,05,24,07,53,9.90
2017,05,24,07,54,9.90
2017,05,24,07,55,9.90
2017,05,24,07,56,9.90
2017,05,24,07,57,9.90
2017,05,24,07,58,9.90
2017,05,24,07,59,9.90
2017,05,24,08,00,10.00
2017,05,24,08,01,10.00
2017,05,24,08,02,10.00
2017,05,24,08,03,10.00
2017,05,24,08,04,10.00
2017,05,24,08,05,10.10
2017,05,24,08,06,10.10
2017,05,24,08,07,10.10
2017,05,24,08,08,10.10
2017,05,24,08,09,10.20
2017,05,24,08,10,10.20
2017,05,24,08,11,10.20
2017,05,24,08,12,10.20
2017,05,24,08,13,10.30
2017,05,24,08,14,10.30
2017,05,24,08,15,10.30
2017,05,24,08,16,10.30
2017,05,24,08,17,10.30
2017,05,24,08,18,10.30
2017,05,24,08,19,10.40
2017,05,24,08,20,10.40
2017,05,24,08,21,10.40
2017,05,24,08,22,10.40
2017,05,24,08,23,10.40
2017,05,24,08,24,10.40
2017,05,24,08,25,10.40
2017,05,24,08,26,10.40
2017,05,24,08,27,10.40
2017,05,24,08,28,10.40
2017,05,24,08,29,10.40
2017,05,24,08,30,10.40
2017,05,24,08,31,10.40
2017,05,24,08,32,10.40
2017,05,24,08,33,10.40
2017,05,24,08,34,10.40
2017,05,24,08,35,10.40
2017,05,24,08,36,10.40
2017,05,24,08,37,10.40
2017,05,24,08,38,10.50
2017,05,24,08,39,10.50
2017,05,24,08,40,10.60
2017,05,24,08,41,10.60
2017,05,24,08,42,10.70
2017,05,24,08,43,10.70
2017,05,24,08,44,10.70
2017,05,24,08,45,10.80
2017,05,24,08,46,10.80
2017,05,24,08,47,10.80
2017,05,24,08,48,10.80
2017,05,24,08,49,10.80
2017,05,24,08,50,10.80
2017,05,24,08,51,10.80
2017,05,24,08,52,10.80
2017,05,24,08,53,10.80
2017,05,24,08,54,10.90
2017,05,24,08,55,10.90
2017,05,24,08,56,10.90
2017,05,24,08,57,11.00
2017,05,24,08,58,11.00
2017,05,24,08,59,11.10
2017,05,24,09,00,11.20
2017,05,24,09,01,11.20
2017,05,24,09,02,11.30
2017,05,24,09,03,11.30
2017,05,24,09,04,11.40
2017,05,24,09,05,11.50
2017,05,24,09,06,11.60
2017,05,24,09,07,11.60
2017,05,24,09,08,11.50
2017,05,24,09,09,11.50
2017,05,24,09,10,11.50
2017,05,24,09,11,11.50
2017,05,24,09,12,11.50
2017,05,24,09,13,11.50
2017,05,24,09,14,11.50
2017,05,24,09,15,11.50
2017,05,24,09,16,11.50
2017,05,24,09,17,11.60
2017,05,24,09,18,11.60
2017,05,24,09,19,11.60
2017,05,24,09,20,11.60
2017,05,24,09,21,11.70
2017,05,24,09,22,11.70
2017,05,24,09,23,11.70
2017,05,24,09,24,11.70
2017,05,24,09,25,11.80
2017,05,24,09,26,11.80
2017,05,24,09,27,11.80
2017,05,24,09,28,11.80
2017,05,24,09,29,11.80
2017,05,24,09,30,11.80
2017,05,24,09,31,11.80
2017,05,24,09,32,11.80
2017,05,24,09,33,11.80
2017,05,24,09,34,11.80
2017,05,24,09,35,11.80
2017,05,24,09,36,11.80
2017,05,24,09,37,11.80
2017,05,24,09,38,11.80
2017,05,24,09,39,11.90
2017,05,24,09,40,11.90
2017,05,24,09,41,12.00
2017,05,24,09,42,12.00
2017,05,24,09,43,12.00
2017,05,24,09,44,12.00
2017,05,24,09,45,12.00
2017,05,24,09,46,12.00
2017,05,24,09,47,12.00
2017,05,24,09,48,12.00
2017,05,24,09,49,12.00
2017,05,24,09,50,12.00
2017,05,24,09,51,12.00
2017,05,24,09,52,12.00
2017,05,24,11,16,13.50
2017,05,24,11,17,13.50
2017,05,24,11,18,13.50
2017,05,24,11,19,13.60
2017,05,24,11,20,13.60
2017,05,24,11,21,13.70
2017,05,24,11,22,13.60
2017,05,24,11,23,13.60
2017,05,24,11,24,13.60
2017,05,24,11,25,13.60
2017,05,24,11,26,13.70
2017,05,24,11,27,13.70
2017,05,24,11,28,13.70
2017,05,24,11,29,13.70
2017,05,24,11,30,13.70
2017,05,24,11,31,13.80
2017,05,24,11,32,13.80
2017,05,24,11,33,13.80
2017,05,24,11,34,13.70
2017,05,24,11,35,13.70
2017,05,24,11,36,13.80
2017,05,24,11,37,13.80
2017,05,24,11,38,13.80
2017,05,24,11,39,13.80
2017,05,24,11,40,13.80
2017,05,24,11,41,13.70
2017,05,24,11,42,13.70
2017,05,24,11,43,13.60
2017,05,24,11,44,13.60
2017,05,24,11,45,13.60
2017,05,24,11,46,13.60
2017,05,24,11,47,13.60
2017,05,24,11,48,13.70
2017,05,24,11,49,13.70
2017,05,24,11,50,13.80
2017,05,24,11,51,13.80
2017,05,24,11,52,14.00
2017,05,24,11,53,14.10
2017,05,24,11,54,14.20
2017,05,24,11,55,14.30
2017,05,24,11,56,14.50
2017,05,24,11,57,14.70
2017,05,24,11,58,14.80
2017,05,24,11,59,14.80
2017,05,24,12,00,14.80
2017,05,24,12,01,14.80
2017,05,24,12,02,14.80
2017,05,24,12,03,14.80
2017,05,24,12,04,14.80
2017,05,24,12,05,14.80
2017,05,24,12,06,14.70
2017,05,24,12,07,14.70
2017,05,24,12,08,14.60
2017,05,24,12,09,14.50
2017,05,24,12,10,14.30
2017,05,24,12,11,14.30
2017,05,24,12,12,14.30
2017,05,24,12,13,14.30
2017,05,24,12,14,14.40
2017,05,24,12,15,14.40
2017,05,24,12,16,14.40
2017,05,24,12,17,14.40
2017,05,24,12,18,14.30
2017,05,24,12,19,14.30
2017,05,24,12,20,14.30
2017,05,24,12,21,14.30
2017,05,24,12,22,14.30
2017,05,24,12,23,14.30
2017,05,24,12,24,14.30
2017,05,24,12,25,14.30
2017,05,24,12,26,14.20
2017,05,24,12,27,14.20
2017,05,24,12,28,14.20
2017,05,24,12,29,14.10
2017,05,24,12,30,14.10
2017,05,24,12,31,14.00
2017,05,24,12,32,13.90
2017,05,24,12,33,14.00
2017,05,24,12,34,14.00
2017,05,24,12,35,14.00
2017,05,24,12,36,14.00
2017,05,24,12,37,14.00
2017,05,24,12,38,14.00
2017,05,24,12,39,14.10
2017,05,24,12,40,14.20
2017,05,24,12,41,14.30
2017,05,24,12,42,14.50
2017,05,24,12,43,14.60
2017,05,24,12,44,14.70
2017,05,24,12,45,14.70
2017,05,24,12,46,14.70
2017,05,24,12,47,14.70
2017,05,24,12,48,14.80
2017,05,24,12,49,14.80
2017,05,24,12,50,14.90
2017,05,24,12,51,14.90
2017,05,24,12,52,15.00
2017,05,24,12,53,15.00
2017,05,24,12,54,15.10
2017,05,24,12,55,15.20
2017,05,24,12,56,15.20
2017,05,24,12,57,15.10
2017,05,24,12,58,15.20
2017,05,24,12,59,15.20
2017,05,24,13,00,15.10
2017,05,24,13,01,15.10
2017,05,24,13,02,15.00
2017,05,24,13,03,14.90
2017,05,24,13,04,14.90
2017,05,24,13,05,15.10
2017,05,24,13,06,15.20
2017,05,24,13,07,15.20
2017,05,24,13,08,15.30
2017,05,24,13,09,15.40
2017,05,24,13,10,15.50
2017,05,24,13,11,15.60
2017,05,24,13,12,15.70
2017,05,24,13,13,15.90
2017,05,24,13,14,16.00
2017,05,24,13,15,16.00
2017,05,24,13,16,16.10
2017,05,24,13,17,16.10
2017,05,24,13,18,16.10
2017,05,24,13,19,16.00
2017,05,24,13,20,15.90
2017,05,24,13,21,15.80
2017,05,24,13,22,15.70
2017,05,24,13,23,15.70
2017,05,24,13,24,15.60
2017,05,24,13,25,15.60
2017,05,24,13,26,15.50
2017,05,24,13,27,15.40
2017,05,24,13,28,15.40
2017,05,24,13,29,15.40
2017,05,24,13,30,15.40
2017,05,24,13,31,15.40
2017,05,24,13,32,15.40
2017,05,24,13,33,15.30
2017,05,24,13,34,15.20
2017,05,24,13,35,15.20
2017,05,24,13,36,15.10
2017,05,24,13,37,15.10
2017,05,24,13,38,15.10
2017,05,24,13,39,15.00
2017,05,24,13,40,15.00
2017,05,24,13,41,15.00
2017,05,24,13,42,14.90
2017,05,24,13,43,14.90
2017,05,24,13,44,14.80
2017,05,24,13,45,14.80
2017,05,24,13,46,14.70
2017,05,24,13,47,14.70
2017,05,24,13,48,14.70
2017,05,24,13,49,14.70
2017,05,24,13,50,14.60
2017,05,24,13,51,14.60
2017,05,24,13,52,14.60
2017,05,24,13,53,14.60
2017,05,24,13,54,14.60
2017,05,24,13,55,14.50
2017,05,24,13,56,14.40
2017,05,24,13,57,14.30
2017,05,24,13,58,14.30
2017,05,24,13,59,14.30
2017,05,24,14,00,14.30
2017,05,24,14,01,14.30
2017,05,24,14,02,14.30
2017,05,24,14,03,14.20
2017,05,24,14,04,14.20
2017,05,24,14,05,14.20
2017,05,24,14,06,14.20
2017,05,24,14,07,14.20
2017,05,24,14,08,14.30
2017,05,24,14,09,14.40
2017,05,24,14,10,14.40
2017,05,24,14,11,14.50
2017,05,24,14,12,14.60
2017,05,24,14,13,14.70
2017,05,24,14,14,14.70
2017,05,24,14,15,14.80
2017,05,24,14,16,14.80
2017,05,24,14,17,14.80
2017,05,24,14,18,14.80
2017,05,24,14,19,14.80
2017,05,24,14,20,14.80
2017,05,24,14,21,14.90
2017,05,24,14,22,14.90
2017,05,24,14,23,14.80
2017,05,24,14,24,14.80
2017,05,24,14,25,14.70
2017,05,24,14,26,14.70
2017,05,24,14,27,14.70
2017,05,24,14,28,14.70
2017,05,24,14,29,14.70
2017,05,24,14,30,14.70
2017,05,24,14,31,14.70
2017,05,24,14,32,14.80
2017,05,24,14,33,14.80
2017,05,24,14,34,14.90
2017,05,24,14,35,14.90
2017,05,24,14,36,15.00
2017,05,24,14,37,15.00
2017,05,24,14,38,14.90
2017,05,24,14,39,14.90
2017,05,24,14,40,14.90
2017,05,24,14,41,14.90
2017,05,24,14,42,15.00
2017,05,24,14,43,15.00
2017,05,24,14,44,15.10
2017,05,24,14,45,15.10
2017,05,24,14,46,15.10
2017,05,24,14,47,15.10
2017,05,24,14,48,15.10
2017,05,24,14,49,15.20
2017,05,24,14,50,15.20
2017,05,24,14,51,15.30
2017,05,24,14,52,15.40
2017,05,24,14,53,15.50
2017,05,24,14,54,15.70
2017,05,24,14,55,15.90
2017,05,24,14,56,15.90
2017,05,24,14,57,15.90
2017,05,24,14,58,15.90
2017,05,24,14,59,15.90
2017,05,24,15,00,15.90
2017,05,24,15,01,16.00
2017,05,24,15,02,16.00
2017,05,24,15,03,16.00
2017,05,24,15,04,16.00
2017,05,24,15,05,15.90
2017,05,24,15,06,15.80
2017,05,24,15,07,15.80
2017,05,24,15,08,15.80
2017,05,24,15,09,15.60
2017,05,24,15,10,15.60
2017,05,24,15,11,15.50
2017,05,24,15,12,15.50
2017,05,24,15,13,15.50
2017,05,24,15,14,15.40
2017,05,24,15,15,15.40
2017,05,24,15,16,15.40
2017,05,24,15,17,15.40
2017,05,24,15,18,15.40
2017,05,24,15,19,15.50
2017,05,24,15,20,15.60
2017,05,24,15,21,15.60
2017,05,24,15,22,15.70
2017,05,24,15,23,15.80
2017,05,24,15,24,15.80
2017,05,24,15,25,15.70
2017,05,24,15,26,15.70
2017,05,24,15,27,15.70
2017,05,24,15,28,15.60
2017,05,24,15,29,15.60
2017,05,24,15,30,15.50
2017,05,24,15,31,15.50
2017,05,24,15,32,15.50
2017,05,24,15,33,15.50
2017,05,24,15,34,15.50
2017,05,24,15,35,15.50
2017,05,24,15,36,15.50
2017,05,24,15,37,15.50
2017,05,24,15,38,15.50
2017,05,24,15,39,15.50
2017,05,24,15,40,15.60
2017,05,24,15,41,15.70
2017,05,24,15,42,15.70
2017,05,24,15,43,15.70
2017,05,24,15,44,15.70
2017,05,24,15,45,15.80
2017,05,24,15,46,15.90
2017,05,24,15,47,15.90
2017,05,24,15,48,15.90
2017,05,24,15,49,15.90
2017,05,24,15,50,15.90
2017,05,24,15,51,15.90
2017,05,24,15,52,16.00
2017,05,24,15,53,16.00
2017,05,24,15,54,16.00
2017,05,24,15,55,15.90
2017,05,24,15,56,15.90
2017,05,24,15,57,15.90
2017,05,24,15,58,15.80
2017,05,24,15,59,15.80
2017,05,24,16,00,15.90
2017,05,24,16,01,15.90
2017,05,24,16,02,15.90
2017,05,24,16,03,15.90
2017,05,24,16,04,15.80
2017,05,24,16,05,15.80
2017,05,24,16,06,15.80
2017,05,24,16,07,15.80
2017,05,24,16,08,15.90
2017,05,24,16,09,15.90
2017,05,24,16,10,16.00
2017,05,24,16,11,16.10
2017,05,24,16,12,16.10
2017,05,24,16,13,16.10
2017,05,24,16,14,16.10
2017,05,24,16,15,16.10
2017,05,24,16,16,16.10
2017,05,24,16,17,16.10
2017,05,24,16,18,16.10
2017,05,24,16,19,16.10
2017,05,24,16,20,16.10
2017,05,24,16,21,16.20
2017,05,24,16,22,16.20
2017,05,24,16,23,16.20
2017,05,24,16,24,16.20
2017,05,24,16,25,16.20
2017,05,24,16,26,16.20
2017,05,24,16,27,16.20
2017,05,24,16,28,16.30
2017,05,24,16,29,16.30
2017,05,24,16,30,16.30
2017,05,24,16,31,16.40
2017,05,24,16,32,16.50
2017,05,24,16,33,16.60
2017,05,24,16,34,16.70
2017,05,24,16,35,16.70
2017,05,24,16,36,16.80
2017,05,24,16,37,16.80
2017,05,24,16,38,16.90
2017,05,24,16,39,16.90
2017,05,24,16,40,17.00
2017,05,24,16,41,17.00
2017,05,24,16,42,17.10
2017,05,24,16,43,17.10
2017,05,24,16,44,17.20
2017,05,24,16,45,17.30
2017,05,24,16,46,17.30
2017,05,24,16,47,17.40
2017,05,24,16,48,17.50
2017,05,24,16,49,17.60
2017,05,24,16,50,17.60
2017,05,24,16,51,17.60
2017,05,24,16,52,17.70
2017,05,24,16,53,17.70
2017,05,24,16,54,17.70
2017,05,24,16,55,17.60
2017,05,24,16,56,17.50
2017,05,24,16,57,17.40
2017,05,24,16,58,17.40
2017,05,24,16,59,17.30
2017,05,24,17,00,17.30
2017,05,24,17,01,17.20
2017,05,24,17,02,17.20
2017,05,24,17,03,17.20
2017,05,24,17,04,17.20
2017,05,24,17,05,17.10
2017,05,24,17,06,17.20
2017,05,24,17,07,17.20
2017,05,24,17,08,17.20
2017,05,24,17,09,17.30
2017,05,24,17,10,17.30
2017,05,24,17,11,17.30
2017,05,24,17,12,17.30
2017,05,24,17,13,17.40
2017,05,24,17,14,17.40
2017,05,24,17,15,17.40
2017,05,24,17,16,17.50
2017,05,24,17,17,17.50
2017,05,24,17,18,17.50
2017,05,24,17,19,17.50
2017,05,24,17,20,17.50
2017,05,24,17,21,17.50
2017,05,24,17,22,17.50
2017,05,24,17,23,17.60
2017,05,24,17,24,17.60
2017,05,24,17,25,17.70
2017,05,24,17,26,17.70
2017,05,24,17,27,17.70
2017,05,24,17,28,17.80
2017,05,24,17,29,17.80
2017,05,24,17,30,17.70
2017,05,24,17,31,17.70
2017,05,24,17,32,17.60
2017,05,24,17,33,17.60
2017,05,24,17,34,17.60
2017,05,24,17,35,17.60
2017,05,24,17,36,17.60
2017,05,24,17,37,17.50
2017,05,24,17,38,17.40
2017,05,24,17,39,17.30
2017,05,24,17,40,17.30
2017,05,24,17,41,17.30
2017,05,24,17,42,17.30
2017,05,24,17,43,17.30
2017,05,24,17,44,17.30
2017,05,24,17,45,17.30
2017,05,24,17,46,17.20
2017,05,24,17,47,17.10
2017,05,24,17,48,17.00
2017,05,24,17,49,17.00
2017,05,24,17,50,17.00
2017,05,24,17,51,17.00
2017,05,24,17,52,16.90
2017,05,24,17,53,16.90
2017,05,24,17,54,16.80
2017,05,24,17,55,16.80
2017,05,24,17,56,16.70
2017,05,24,17,57,16.60
2017,05,24,17,58,16.50
2017,05,24,17,59,16.50
2017,05,24,18,00,16.40
2017,05,24,18,01,16.40
2017,05,24,18,02,16.30
2017,05,24,18,03,16.30
2017,05,24,18,04,16.30
2017,05,24,18,05,16.20
2017,05,24,18,06,16.10
2017,05,24,18,07,16.10
2017,05,24,18,08,16.10
2017,05,24,18,09,16.00
2017,05,24,18,10,15.90
2017,05,24,18,11,15.90
2017,05,24,18,12,15.90
2017,05,24,18,13,15.80
2017,05,24,18,14,15.80
2017,05,24,18,15,15.70
2017,05,24,18,16,15.70
2017,05,24,18,17,15.60
2017,05,24,18,18,15.60
2017,05,24,18,19,15.60
2017,05,24,18,20,15.50
2017,05,24,18,21,15.50
2017,05,24,18,22,15.50
2017,05,24,18,23,15.40
2017,05,24,18,24,15.40
2017,05,24,18,25,15.40
2017,05,24,18,26,15.30
2017,05,24,18,27,15.20
2017,05,24,18,28,15.10
2017,05,24,18,29,15.00
2017,05,24,18,30,14.80
2017,05,24,18,31,14.60
2017,05,24,18,32,14.40
2017,05,24,18,33,14.30
2017,05,24,18,34,14.10
2017,05,24,18,35,14.00
2017,05,24,18,36,13.90
2017,05,24,18,37,13.90
2017,05,24,18,38,13.80
2017,05,24,18,39,13.70
2017,05,24,18,40,13.60
2017,05,24,18,41,13.60
2017,05,24,18,42,13.50
2017,05,24,18,43,13.40
2017,05,24,18,44,13.40
2017,05,24,18,45,13.40
2017,05,24,18,46,13.40
2017,05,24,18,47,13.40
2017,05,24,18,48,13.40
2017,05,24,18,49,13.40
2017,05,24,18,50,13.40
2017,05,24,18,51,13.40
2017,05,24,18,52,13.40
2017,05,24,18,53,13.40
2017,05,24,18,54,13.40
2017,05,24,18,55,13.40
2017,05,24,18,56,13.40
2017,05,24,18,57,13.40
2017,05,24,18,58,13.50
2017,05,24,18,59,13.50
2017,05,24,19,00,13.50
2017,05,24,19,01,13.60
2017,05,24,19,02,13.60